AirNav   Pilot Hours Calculator
 
 1567 users online  

12KY John M Foree Airport
New Castle, Kentucky, USA

GOING TO NEW CASTLE?


FAA INFORMATION EFFECTIVE 08 OCTOBER 2020

Location

FAA Identifier: 12KY
Lat/Long: 38-27-37.2390N 085-10-06.8360W
38-27.620650N 085-10.113933W
38.4603442,-85.1685656
(estimated)
Elevation: 853 ft. / 260 m (estimated)
Variation: 03W (1985)
From city: 2 miles N of NEW CASTLE, KY
Time zone: UTC -4 (UTC -5 during Standard Time)
Zip code: 40050

Airport Operations

Airport use: Private use. Permission required prior to landing
Activation date: 09/1972
Control tower: no
ARTCC: INDIANAPOLIS CENTER
FSS: LOUISVILLE FLIGHT SERVICE STATION
Attendance: UNATNDD
Wind indicator: yes
Segmented circle: yes
Lights: FOR LIRL RY 13/31 CALL 502-845-7272.

Nearby radio navigation aids

VOR radial/distance  VOR name  Freq  Var
FFTr327/(20.7)FRANKFORT VOR109.4003W
IIUr041/28.8LOUISVILLE VORTAC114.8001E
CVGr217/39.8CINCINNATI VORTAC117.3004W

Airport Services

Airframe service: NONE
Powerplant service: NONE

Runway Information

Runway 13/31

Dimensions: 2500 x 100 ft. / 762 x 30 m
Surface: turf
Runway edge lights: low intensity
RUNWAY 13  RUNWAY 31
Traffic pattern: leftleft

Airport Ownership and Management from official FAA records

Ownership: Privately-owned
Owner: JOHN B. FOREE, DVM
2135 CAMPBELLSBURG ROAD
NEW CASTLE, KY 40050
Phone 502-845-7272
Manager: JOHN B. FOREE, DVM
2135 CAMPBELLSBURG ROAD
NEW CASTLE, KY 40050
Phone 502-845-7272

Airport Operational Statistics

Aircraft based on the field: 3
Single engine airplanes: 2
Multi engine airplanes: 1
    

Additional Remarks

A52-31 50' PLINE E OF LNDG AREA 10' ABV RWY ELEV.
FOR CD CTC LOUISVILLE APCH AT 502-375-7499

Instrument Procedures

There are no published instrument procedures at 12KY.

Some nearby airports with instrument procedures:

KFFT - Capital City Airport (21 nm SE)
KIMS - Madison Municipal Airport (23 nm NW)
KLOU - Bowman Field Airport (27 nm SW)
KJVY - Clark Regional Airport (27 nm W)
KSDF - Louisville Muhammad Ali International Airport (32 nm SW)
 
Loc | Ops | Rwys | IFR | FBO | Links
Com | Nav | Svcs | Stats | Notes
Area around 12KY (John M Foree Airport)
 
Road maps at: MapQuest Bing Google
 
Aerial photo
No photo
 
Sectional chart

 
Airport distance calculator
Flying to John M Foree Airport? Find the distance to fly.

From to 12KY

Sunrise and sunset
Times for 20-Oct-2020
 Local
(UTC-4)
 Zulu
(UTC)
Morning civil twilight07:3011:30
Sunrise07:5711:57
Sunset18:5422:54
Evening civil twilight19:2123:21

Current date and time
Zulu (UTC)  20-Oct-2020 20:03:54
Local (UTC-4)  20-Oct-2020 16:03:54
 
METAR
KFFT 
21nm SE 
201953Z AUTO 00000KT 10SM OVC006 19/16 A3014 RMK AO2 SLP202 T01890161
KIMS 
23nm NW 
201955Z AUTO 07004KT 4SM OVC004 12/12 A3018 RMK AO1
KLOU 
28nm SW 
201953Z 00000KT 10SM OVC007 17/14 A3014 RMK AO2 SLP204 T01670139
KSDF 
31nm SW 
201956Z 00000KT 10SM OVC008 17/14 A3014 RMK AO2 SLP202 T01670144
KLEX 
37nm SE 
201954Z 20005KT 10SM OVC022 21/17 A3015 RMK AO2 SLP204 T02060172
K27K 
37nm E 
201955Z AUTO 23006KT 10SM OVC017 20/17 A3015 RMK AO1
TAF
KSDF 
31nm SW 
201728Z 2018/2124 VRB05KT P6SM SCT006 BKN010 TEMPO 2018/2022 4SM -RA BR BKN006 FM202200 VRB04KT P6SM SCT018 BKN024 FM210100 15006KT P6SM BKN035 FM210300 16005KT P6SM FEW045 BKN180
KLEX 
37nm SE 
201728Z 2018/2118 21009KT P6SM OVC015 FM202100 21005KT P6SM OVC025 FM202300 15005KT P6SM FEW025 SCT090
NOTAMs
Click for the latest NOTAMs
NOTAMs are issued by the DoD/FAA and will open in a separate window not controlled by AirNav.

 

 
 

Would you like to see your business listed on this page?

 If your business provides an interesting product or service to pilots, flight crews, aircraft, or users of the John M Foree Airport, you should consider listing it here.  To start the listing process, click on the button below
 
Add a business
 

Other Pages about John M Foree Airport

Update a link
 
Copyright © AirNav, LLC. All rights reserved. Privacy Policy  Contact